This is the latest recevied weather packets stored in our database for station/object WD0REW. If no packets are shown the sender has not sent any weather packets the latest 1 day(s).
| Time | Temp. | Humidity | Pressure | Rain* | Wind** | Luminosity | Snow |
|---|---|---|---|---|---|---|---|
| 1778048795 | 6.67° C | 88% | 1014.4 hPa | 0 mm | 0.89 m/s, 4° | 0 W/m² | - |
| 1778048491 | 6.67° C | 88% | 1014.2 hPa | 0 mm | 0 m/s | 0 W/m² | - |
| 1778048187 | 7.22° C | 89% | 1014.5 hPa | 0 mm | 0.45 m/s, 3° | 0 W/m² | - |
| 1778047885 | 7.22° C | 88% | 1014.5 hPa | 0 mm | 0 m/s | 0 W/m² | - |
| 1778047583 | 7.22° C | 89% | 1014.6 hPa | 0 mm | 0 m/s | 0 W/m² | - |
| 1778047280 | 7.22° C | 88% | 1014.6 hPa | 0 mm | 0 m/s | 0 W/m² | - |
| 1778046977 | 7.22° C | 87% | 1014.6 hPa | 0 mm | 0 m/s | 0 W/m² | - |
| 1778046674 | 7.22° C | 86% | 1014.5 hPa | 0 mm | 0.45 m/s, 2° | 0 W/m² | - |
| 1778046371 | 7.22° C | 85% | 1014.5 hPa | 0 mm | 0.45 m/s, 357° | 0 W/m² | - |
| 1778046067 | 7.22° C | 86% | 1014.4 hPa | 0 mm | 0.89 m/s, 11° | 0 W/m² | - |
| 1778045765 | 7.22° C | 87% | 1014.4 hPa | 0 mm | 1.34 m/s, 350° | 0 W/m² | - |
| 1778045463 | 7.22° C | 88% | 1014.2 hPa | 0 mm | 0 m/s | 0 W/m² | - |
| 1778045161 | 7.22° C | 88% | 1014 hPa | 0 mm | 0.45 m/s, 354° | 0 W/m² | - |
| 1778044859 | 7.22° C | 89% | 1014 hPa | 0 mm | 0 m/s | 0 W/m² | - |
| 1778044555 | 7.22° C | 88% | 1014.1 hPa | 0 mm | 0.45 m/s, 355° | 0 W/m² | - |
| 1778044252 | 7.22° C | 89% | 1013.9 hPa | 0 mm | 0.45 m/s, 356° | 0 W/m² | - |
| 1778043950 | 7.22° C | 88% | 1013.9 hPa | 0 mm | 0.45 m/s, 8° | 0 W/m² | - |
| 1778043647 | 7.22° C | 87% | 1013.9 hPa | 0 mm | 0.45 m/s, 357° | 0 W/m² | - |
| 1778043343 | 7.22° C | 88% | 1013.4 hPa | 0 mm | 0 m/s | 0 W/m² | - |
| 1778043040 | 7.22° C | 88% | 1013.5 hPa | 0 mm | 0 m/s | 0 W/m² | - |
| 1778042738 | 7.22° C | 89% | 1013.4 hPa | 0 mm | 0.45 m/s, 349° | 0 W/m² | - |
| 1778042435 | 7.22° C | 88% | 1013.2 hPa | 0 mm | 0.45 m/s, 44° | 0 W/m² | - |
| 1778042132 | 7.22° C | 89% | 1013.3 hPa | 0 mm | 0.45 m/s, 352° | 0 W/m² | - |
| 1778041830 | 7.22° C | 89% | 1013.1 hPa | 0 mm | 0.89 m/s, 348° | 0 W/m² | - |
| 1778041529 | 7.22° C | 89% | 1013.2 hPa | 0 mm | 1.34 m/s, 352° | 0 W/m² | - |
* Rain latest hour (hover to see other rain measurements)
** Current wind speed in m/s (hover to see current wind gust speed)